www.pogodaiklimat.ru

АРХИВ ПОГОДЫ в Лос-Анджелесе

Время (UTC), дата Ветер
(напр.,м/с)
 
Видим.   Явления Облачность Т
(С)
Тd
(С)
f
(%)
Тe
(С)
Тes
(С)
Комфортность

P
(гПа)

Po
(гПа)
Тmin
(С)
Tmax
(С)
R
(мм)
SD
(см)
12:53 22.06 З  4 км  дымка  10/10 210 м  +18.3  +16.1  87  +19  +19    1012.4  1007.9         
13:53 22.06 ЮЗ  4 км  дымка  10/10 210 м  +18.0  +16.0  88  +18  +18    1012.8  1008.2         
14:53 22.06 ЮЗ  4 км  дымка  10/10 240 м  +18.0  +16.0  88  +18  +18    1013.2  1008.9         
15:14 22.06 ЮЗ  4 км  дымка  10/10 210 м  +17.8  +16.1  90  +18  +18      1008.5         
15:38 22.06 ЮЗ  5 км  дымка  10/10 210 м  +18.3  +16.1  87  +19  +19      1008.5         
15:53 22.06 З  5 км  дымка  10/10 210 м  +18.3  +16.1  87  +19  +19    1013.0  1008.5         
16:43 22.06 ЮЗ  6 км  дымка  10/10 210 м  +18.9  +16.1  84  +20  +20      1008.5         
16:53 22.06 З  6 км  дымка  10/10 210 м  +19.0  +16.0  83  +21  +21  комфорт  1012.7  1008.2  +17.8  +18.9     
17:53 22.06 ЮЗ  10 км  мгла  10/10 420 м  +20.6  +16.1  75  +24  +24  комфорт  1012.3  1007.9         
18:04 22.06 нст  11 км    8/8 240 м  +21.1  +16.1  73  +24  +28  комфорт    1007.9         
18:53 22.06 З  11 км    8/8 270 м  +22.2  +16.1  68  +26  +28  душно  1011.7  1007.2         
19:43 22.06 З   11 км    8/8 270 м  +21.1  +15.6  71  +24  +26  комфорт    1006.8         
19:53 22.06 ЮЗ  11 км    8/8 270 м  +21.0  +16.0  73  +25  +27  комфорт  1011.2  1006.8         
20:53 22.06 З  16 км    8/8 330 м  +20.6  +16.1  75  +24  +25  комфорт  1010.7  1006.2         
21:53 22.06 З  16 км    8/8 330 м  +20.0  +15.6  76  +22  +23  комфорт  1010.0  1005.5         
22:53 22.06 З  16 км    10/10 300 м  +19.4  +15.6  79  +21  +21  комфорт  1009.4  1004.8         
23:53 22.06 ЮЗ  16 км    10/10 300 м  +18.9  +15.6  81  +20  +20    1009.1  1004.8         
00:53 23.06 З   16 км    10/10 240 м  +18.3  +15.6  84  +18  +18    1009.1  1004.8         
01:53 23.06 З  16 км    10/10 240 м  +17.8  +15.6  87  +17  +17    1009.0  1004.5         
02:53 23.06 З  14 км    10/10 180 м  +17.2  +15.0  87  +17  +17    1009.5  1005.2         
03:53 23.06 З  14 км    8/8 240 м  +17.2  +15.0  87  +17  +17    1010.0  1005.5         
04:53 23.06 ЮЗ  14 км    10/10 150 м  +17.0  +16.0  94  +17  +17    1010.0  1005.5  +17.2       
05:53 23.06 Ю  10 км  дымка  10/10 150 м  +17.0  +15.0  88  +17  +17    1009.7  1005.2         
06:53 23.06 нст  8 км  дымка  10/10 150 м  +17.2  +15.6  90  +17  +17    1009.6  1005.2         
07:53 23.06 Ю  8 км  мгла  10/10 240 м  +18.0  +16.0  88  +19  +19    1009.3  1004.8         
08:53 23.06 ЮВ  10 км  дымка  10/10 240 м  +17.8  +15.6  87  +18  +18    1009.1  1004.8         
09:53 23.06 В  8 км  дымка  10/10 180 м  +18.0  +16.0  88  +18  +18    1009.0  1004.5         
10:53 23.06 В  11 км    10/10 240 м  +17.8  +16.1  90  +18  +18    1009.0  1004.5    +18.3     
11:53 23.06 Ю  5 км  дымка  10/10 240 м  +17.0  +16.0  94  +16  +16    1009.1  1004.8         
12:53 23.06 Ю  5 км  дымка  10/10 240 м  +17.2  +15.6  90  +17  +17    1009.6  1005.2         
13:53 23.06 нст  8 км  дымка  10/10 300 м  +17.2  +15.6  90  +17  +17    1010.3  1005.8         
14:53 23.06 ЮВ  11 км    10/10 360 м  +17.8  +15.6  87  +17  +17    1010.8  1006.2         
15:53 23.06 ЮВ  16 км    10/10 420 м  +19.4  +15.0  76  +21  +21  комфорт  1010.9  1006.5         
16:53 23.06 Ю  16 км    10/10 420 м  +20.0  +15.0  73  +22  +22  комфорт  1011.2  1006.8         
17:13 23.06 ЮВ  16 км    10/10 480 м  +20.0  +15.0  73  +22  +22  комфорт    1006.8         
17:53 23.06 ЮВ  16 км    10/10 510 м  +20.6  +15.0  70  +23  +23  комфорт  1011.5  1007.2         
18:53 23.06 ЮВ  6
{8} 
16 км    10/10 510 м  +20.0  +15.0  73  +22  +22  комфорт  1011.7  1007.2         
19:53 23.06 ЮВ  16 км    10/10 660 м  +21.1  +14.4  66  +24  +24  комфорт  1011.7  1007.2         
20:53 23.06 ЮВ  4
{9} 
16 км    8/8 630 м  +21.0  +14.0  64  +24  +26  комфорт  1011.5  1006.8         
21:53 23.06 Ю  16 км    8/8 630 м  +21.1  +13.9  63  +24  +25  комфорт  1011.1  1006.5         
22:24 23.06 ЮВ  7
{10} 
16 км    5/5 540 м  +21.0  +14.0  64  +23  +25  комфорт    1006.2         
22:53 23.06 Ю  7
{11} 
16 км    5/5 540 м  +21.0  +14.0  64  +23  +25  комфорт  1010.6  1006.2  +20.0  +21.7     
23:53 23.06 Ю  16 км    2/2 510 м  +21.0  +13.0  60  +24  +27  комфорт  1010.0  1005.5         
00:53 24.06 ЮВ  16 км    2/2 510 м  +19.4  +13.3  68  +20  +22    1010.1  1005.8         
01:53 24.06 ЮВ  16 км    5/5 480 м  +18.0  +13.0  73  +18  +18    1010.4  1005.8         
02:53 24.06 ЮВ  16 км    5/5 480 м  +18.0  +13.0  73  +18  +18    1010.9  1006.5         
03:14 24.06 Ю  16 км    8/8 480 м  +17.8  +13.3  75  +17  +17      1006.5         
03:53 24.06 Ю  4
{8} 
16 км    8/8 510 м  +18.3  +13.3  73  +18  +18    1011.3  1006.8         

 

Местоположение метеостанции Los Angeles International Airport: широта 33.9381 долгота -118.3889 высота над уровнем моря 38 м.

В архиве по умолчанию представлена погода в Лос-Анджелесе за последние 1-2 суток. Обновление информации о фактической погоде в базе происходит ежечасно! Архивные данные за месяц целиком и за предыдущие месяцы Вы можете получить, выбрав интересующий диапазон дат из раскрывающегося списка и нажав кнопку "Ввод!".

Внимание! Архив погоды МЕТАР в базе сайта в настоящее время начинается c 1 января 2013 г. Нет смысла пытаться выбрать более раннюю дату.

Внимание! Время в таблицах - всемирное. Для получения местного времени необходимо прибавить поправку, которая в Лос-Анджелесе равна -8 ч.

Ветер - указаны скорость ветра в м/с и направление, откуда дует ветер: С - северный, СВ - северо-восточный, В - восточный, ЮВ - юго-восточный, Ю - южный, ЮЗ - юго-западный, З - западный, СЗ - северо-западный.
Видимость - горизонтальная дальность видимости в метрах или километрах. При видимости от 1 до 10 км при отсутствии осадков обычно наблюдается дымка, при ухудшении видимости до 1 км и менее - туман. В сухую погоду видимость может ухудшаться дымом, пылью или мглою.
Атмосферные явления - указаны явления, наблюдавшиеся в указанный момент времени.
Облачность - указаны через наклонную черту верхняя и нижняя облачность в баллах и высота нижней границы облаков в метрах. Внимание: облачность, как и прочие метеорологические величины в США измеряются автоматическими метеостанциями. Указанные значения в баллах носят условный характер и показывают процент времени, в течение которого, в среднем, лазерный луч высотомера отражался от облаков обратно.
T - Температура воздуха - температура, измеренная на высоте 2 м над землей.
Td - Температура точки росы - температура, при понижении до которой содержащийся в воздухе водяной пар достигнет насыщения.
f - Относительная влажность воздуха - влажноcть воздуха, измеренная на высоте 2 м над землей.
Te - Эффективная температура - температура, которую ощущает одетый по сезону человек в тени. Характеристика душности погоды. При расчете учитывается влияние влажности воздуха и скорости ветра на теплоощущения человека.
Tes - Эффективная температура на солнце - температура, которую ощущает человек, с поправкой на солнечный нагрев. Характеристика знойности погоды. Зависит от высоты солнца над горизонтом, облачности и скорости ветра. Ночью, в пасмурную погоду, а также при ветре 12 м/с и более поправка равна нулю.
P - Атмосферное давление - приведенное к уровню моря атмосферное давление.
Po - Атмосферное давление - измеренное на уровне метеостанции атмосферное давление.
Tmin - Минимальная температура - минимум температуры воздуха на высоте 2 м над землей.
Tmax - Максимальная температура - максимум температуры воздуха на высоте 2 м над землей.
R - Количество осадков - Количество выпавших осадков за 3 или 6 часов, мм.
SD - Снежный покров - Высота снежного покрова, см.